TimeEST,TemperatureF,Dew PointF,Humidity,Sea Level PressureIn,VisibilityMPH,Wind Direction,Wind SpeedMPH,Gust SpeedMPH,PrecipitationIn,Events,Conditions,WindDirDegrees,DateUTC
12:15 AM,26.6,23.0,86,30.22,10.0,Calm,Calm,-,N/A,,Clear,0,2013-01-03 05:15:00
12:35 AM,26.6,23.0,86,30.22,7.0,Calm,Calm,-,N/A,,Clear,0,2013-01-03 05:35:00
12:55 AM,26.6,24.8,93,30.21,7.0,Calm,Calm,-,N/A,,Clear,0,2013-01-03 05:55:00
1:15 AM,26.6,24.8,93,30.21,7.0,Calm,Calm,-,N/A,,Clear,0,2013-01-03 06:15:00
1:35 AM,26.6,24.8,93,30.21,7.0,Calm,Calm,-,N/A,,Clear,0,2013-01-03 06:35:00
1:55 AM,24.8,23.0,93,30.21,7.0,Calm,Calm,-,N/A,,Clear,0,2013-01-03 06:55:00
2:15 AM,24.8,23.0,93,30.21,7.0,Calm,Calm,-,N/A,,Clear,0,2013-01-03 07:15:00
2:55 AM,23.0,23.0,100,30.22,7.0,Calm,Calm,-,N/A,,Clear,0,2013-01-03 07:55:00
3:15 AM,23.0,21.2,93,30.23,5.0,Calm,Calm,-,N/A,,Clear,0,2013-01-03 08:15:00
3:35 AM,23.0,23.0,100,30.22,7.0,Calm,Calm,-,N/A,,Clear,0,2013-01-03 08:35:00
3:55 AM,23.0,21.2,93,30.23,7.0,Calm,Calm,-,N/A,,Clear,0,2013-01-03 08:55:00
4:15 AM,21.2,21.2,100,30.22,5.0,Calm,Calm,-,N/A,,Clear,0,2013-01-03 09:15:00
4:35 AM,21.2,19.4,93,30.22,5.0,Calm,Calm,-,N/A,,Clear,0,2013-01-03 09:35:00
4:55 AM,21.2,21.2,100,30.22,7.0,Calm,Calm,-,N/A,,Clear,0,2013-01-03 09:55:00
5:15 AM,21.2,19.4,93,30.22,7.0,Calm,Calm,-,N/A,,Clear,0,2013-01-03 10:15:00
5:35 AM,21.2,19.4,93,30.22,7.0,Calm,Calm,-,N/A,,Clear,0,2013-01-03 10:35:00
5:55 AM,21.2,19.4,93,30.23,7.0,WSW,3.5,-,N/A,,Clear,240,2013-01-03 10:55:00
6:15 AM,19.4,19.4,100,30.23,7.0,WSW,4.6,-,N/A,,Clear,250,2013-01-03 11:15:00
6:35 AM,21.2,19.4,93,30.24,7.0,West,3.5,-,N/A,,Clear,260,2013-01-03 11:35:00
6:55 AM,21.2,21.2,100,30.25,7.0,Calm,Calm,-,N/A,,Clear,0,2013-01-03 11:55:00
7:15 AM,21.2,19.4,93,30.25,7.0,Calm,Calm,-,N/A,,Clear,0,2013-01-03 12:15:00
7:35 AM,21.2,21.2,100,30.26,7.0,WSW,3.5,-,N/A,,Clear,250,2013-01-03 12:35:00
7:55 AM,23.0,21.2,93,30.26,7.0,Calm,Calm,-,N/A,,Clear,0,2013-01-03 12:55:00
8:15 AM,21.2,19.4,93,30.26,5.0,SW,3.5,-,N/A,,Clear,220,2013-01-03 13:15:00
8:35 AM,21.2,19.4,93,30.27,5.0,WSW,3.5,-,N/A,,Clear,240,2013-01-03 13:35:00
8:55 AM,21.2,19.4,93,30.28,5.0,WSW,3.5,-,N/A,,Clear,240,2013-01-03 13:55:00
9:15 AM,23.0,21.2,93,30.28,5.0,WSW,3.5,-,N/A,,Clear,250,2013-01-03 14:15:00
9:35 AM,26.6,23.0,86,30.28,7.0,West,3.5,-,N/A,,Clear,270,2013-01-03 14:35:00
9:55 AM,28.4,24.8,86,30.28,7.0,WNW,5.8,-,N/A,,Clear,290,2013-01-03 14:55:00
10:35 AM,32.0,23.0,69,30.29,10.0,WNW,4.6,-,N/A,,Clear,290,2013-01-03 15:35:00
10:55 AM,32.0,23.0,69,30.28,10.0,West,5.8,-,N/A,,Clear,260,2013-01-03 15:55:00
11:15 AM,32.0,23.0,69,30.28,10.0,WSW,6.9,-,N/A,,Clear,250,2013-01-03 16:15:00
11:35 AM,33.8,23.0,65,30.28,10.0,West,6.9,-,N/A,,Clear,260,2013-01-03 16:35:00
11:55 AM,33.8,24.8,70,30.27,10.0,WSW,6.9,-,N/A,,Clear,250,2013-01-03 16:55:00
12:15 PM,33.8,26.6,75,30.26,10.0,West,8.1,-,N/A,,Clear,270,2013-01-03 17:15:00
12:35 PM,35.6,26.6,70,30.25,10.0,West,6.9,-,N/A,,Clear,270,2013-01-03 17:35:00
12:55 PM,35.6,26.6,70,30.25,10.0,West,6.9,-,N/A,,Clear,270,2013-01-03 17:55:00
1:15 PM,35.6,26.6,70,30.24,10.0,West,10.4,-,N/A,,Clear,280,2013-01-03 18:15:00
1:35 PM,37.4,26.6,65,30.24,10.0,WNW,9.2,-,N/A,,Clear,290,2013-01-03 18:35:00
1:55 PM,37.4,26.6,65,30.23,10.0,West,6.9,-,N/A,,Clear,280,2013-01-03 18:55:00
2:15 PM,37.4,26.6,65,30.24,10.0,WNW,10.4,-,N/A,,Clear,290,2013-01-03 19:15:00
2:35 PM,37.4,26.6,65,30.24,10.0,West,11.5,-,N/A,,Clear,280,2013-01-03 19:35:00
2:55 PM,37.4,24.8,60,30.24,10.0,WNW,11.5,-,N/A,,Clear,300,2013-01-03 19:55:00
3:15 PM,37.4,23.0,56,30.25,10.0,West,10.4,-,N/A,,Clear,280,2013-01-03 20:15:00
3:35 PM,37.4,23.0,56,30.25,10.0,West,8.1,16.1,N/A,,Clear,280,2013-01-03 20:35:00
3:55 PM,37.4,23.0,56,30.26,10.0,West,11.5,16.1,N/A,,Clear,280,2013-01-03 20:55:00
4:15 PM,37.4,23.0,56,30.26,10.0,WNW,11.5,18.4,N/A,,Clear,290,2013-01-03 21:15:00
4:35 PM,37.4,19.4,48,30.27,10.0,NW,8.1,-,N/A,,Clear,320,2013-01-03 21:35:00
4:55 PM,35.6,19.4,52,30.28,10.0,NW,11.5,16.1,N/A,,Clear,320,2013-01-03 21:55:00
5:15 PM,35.6,19.4,52,30.28,10.0,NW,8.1,-,N/A,,Clear,310,2013-01-03 22:15:00
5:35 PM,33.8,19.4,56,30.29,10.0,NW,6.9,-,N/A,,Clear,310,2013-01-03 22:35:00
5:55 PM,33.8,21.2,60,30.29,10.0,NW,5.8,-,N/A,,Clear,310,2013-01-03 22:55:00
6:15 PM,32.0,21.2,64,30.30,10.0,NW,5.8,-,N/A,,Clear,320,2013-01-03 23:15:00
6:35 PM,32.0,21.2,64,30.30,10.0,NNW,5.8,-,N/A,,Clear,330,2013-01-03 23:35:00
6:55 PM,32.0,23.0,69,30.31,10.0,NW,6.9,-,N/A,,Clear,320,2013-01-03 23:55:00
7:15 PM,32.0,23.0,69,30.32,10.0,NW,5.8,-,N/A,,Clear,320,2013-01-04 00:15:00
7:35 PM,32.0,23.0,69,30.32,10.0,NW,5.8,-,N/A,,Clear,320,2013-01-04 00:35:00
7:55 PM,30.2,23.0,75,30.32,10.0,NW,3.5,-,N/A,,Clear,310,2013-01-04 00:55:00
8:15 PM,30.2,23.0,75,30.33,10.0,WNW,3.5,-,N/A,,Clear,290,2013-01-04 01:15:00
8:35 PM,28.4,23.0,80,30.33,10.0,WNW,4.6,-,N/A,,Clear,290,2013-01-04 01:35:00
8:55 PM,30.2,23.0,75,30.33,10.0,West,3.5,-,N/A,,Clear,280,2013-01-04 01:55:00
9:15 PM,26.6,23.0,86,30.33,10.0,WNW,4.6,-,N/A,,Clear,290,2013-01-04 02:15:00
9:35 PM,28.4,23.0,80,30.33,10.0,NW,4.6,-,N/A,,Clear,310,2013-01-04 02:35:00
9:55 PM,28.4,23.0,80,30.34,10.0,West,3.5,-,N/A,,Clear,270,2013-01-04 02:55:00
10:15 PM,28.4,21.2,74,30.34,10.0,WSW,4.6,-,N/A,,Clear,250,2013-01-04 03:15:00
10:35 PM,26.6,21.2,80,30.34,10.0,WSW,3.5,-,N/A,,Clear,250,2013-01-04 03:35:00
10:55 PM,26.6,21.2,80,30.34,10.0,West,4.6,-,N/A,,Clear,260,2013-01-04 03:55:00
11:15 PM,26.6,21.2,80,30.35,10.0,West,4.6,-,N/A,,Clear,260,2013-01-04 04:15:00
11:35 PM,23.0,21.2,93,30.35,10.0,West,8.1,-,N/A,,Clear,280,2013-01-04 04:35:00
11:55 PM,26.6,21.2,80,30.36,10.0,WNW,6.9,-,N/A,,Clear,290,2013-01-04 04:55:00